Kivalina, AK

12:50 PM AKST on December 13, 2017 (GMT -0900)
Kivalina

Weather History for PAVL - April, 2013

Change the Weather History Date:

Tuesday, April 9, 2013

  Actual Average (PAWN) Record (PAWN)
Temperature  
Mean Temperature -4 °F -  
Max Temperature 0 °F 22 °F 46 °F (2004)
Min Temperature -7 °F 7 °F -14 °F (2008)
Degree Days  
Heating Degree Days 68    
Moisture  
Dew Point -9 °F    
Average Humidity 78    
Maximum Humidity 85    
Minimum Humidity 71    
Precipitation  
Precipitation 0.00 in - - ()
Sea Level Pressure  
Sea Level Pressure 29.67 in    
Wind  
Wind Speed 26 mph (North)    
Max Wind Speed 41 mph    
Max Gust Speed 53 mph    
Visibility 2 miles    
Events Fog    
Averages and records for this station are not official NWS values.
T = Trace of Precipitation, MM = Missing Value Source: NWS Daily Summary

Daily Weather History Graph

Daily Weather History Graph

Search for Another Location

Airport or City:

Trip Planner

Search our weather history database for the weather conditions in past years. The results will help you decide how hot, cold, wet, or windy it might be!

Date:

Astronomy

Apr. 09, 2013 Rise Set
Actual Time 7:32 AM AKDT 10:29 PM AKDT
Civil Twilight 6:28 AM AKDT 11:33 PM AKDT
Nautical Twilight 4:50 AM AKDT 1:16 AM AKDT
Astronomical Twilight Sun does not rise Sun does not rise
Moon 7:10 AM AKDT (4/9) 10:27 PM AKDT (4/9)
Length of Visible Light 17h 05m
Length of Day
14h 57m
Waning Crescent, 0% of the Moon is Illuminated
Apr 9
Waning Crescent
Apr 10
New
Apr 18
First Quarter
Apr 25
Full
May 2
Last Quarter

Hourly Weather History & Observations

Time (AKDT) Temp. Windchill Dew Point Humidity Pressure Visibility Wind Dir Wind Speed Gust Speed Precip Events Conditions
12:53 AM -5.1 °F -29.5 °F -11.9 °F 72% 29.89 in 9.0 mi NNE 21.9 mph - N/A   Clear
1:53 AM -6.0 °F -30.7 °F -13.0 °F 72% 29.87 in 10.0 mi North 21.9 mph - N/A   Clear
2:35 AM -5.8 °F -32.0 °F -11.2 °F 77% 29.84 in 2.5 mi North 25.3 mph - N/A   Haze
2:43 AM -5.8 °F -32.4 °F -11.2 °F 77% 29.84 in 3.0 mi North 26.5 mph - N/A   Haze
2:53 AM -6.0 °F -31.2 °F -11.9 °F 75% 29.85 in 5.0 mi North 23.0 mph - N/A   Haze
3:53 AM -6.0 °F -32.2 °F -11.9 °F 75% 29.82 in 4.0 mi NNE 25.3 mph - N/A   Haze
4:53 AM -6.0 °F -31.2 °F -11.9 °F 75% 29.79 in 4.0 mi NNE 23.0 mph - N/A   Haze
5:26 AM -5.8 °F -31.0 °F -11.2 °F 77% 29.77 in 2.5 mi North 23.0 mph - N/A   Haze
5:44 AM -5.8 °F -29.9 °F -11.2 °F 77% 29.78 in 4.0 mi North 20.7 mph - N/A   Haze
5:53 AM -6.0 °F -30.7 °F -11.9 °F 75% 29.77 in 4.0 mi NNE 21.9 mph - N/A   Haze
6:22 AM -5.8 °F -32.0 °F -11.2 °F 77% 29.76 in 2.0 mi North 25.3 mph - N/A   Haze
6:53 AM -6.0 °F -29.0 °F -11.9 °F 75% 29.76 in 5.0 mi North 18.4 mph - N/A   Haze
7:46 AM -7.6 °F -33.9 °F -11.2 °F 84% 29.73 in 1.8 mi North 24.2 mph - N/A   Haze
7:53 AM -7.1 °F -32.7 °F -11.9 °F 79% 29.73 in 1.8 mi North 23.0 mph 31.1 mph N/A   Haze
8:02 AM -5.8 °F -31.0 °F -11.2 °F 77% 29.73 in 2.0 mi North 23.0 mph - N/A   Haze
8:16 AM -5.8 °F -32.0 °F -11.2 °F 77% 29.72 in 3.0 mi North 25.3 mph - N/A   Haze
8:50 AM -5.8 °F -32.0 °F -11.2 °F 77% 29.70 in 2.5 mi North 25.3 mph - N/A   Haze
8:53 AM -6.0 °F -33.9 °F -11.9 °F 75% 29.70 in 1.8 mi North 29.9 mph - N/A   Haze
9:13 AM -5.8 °F -33.7 °F -11.2 °F 77% 29.69 in 0.8 mi North 29.9 mph 38.0 mph 0.00 in   Clear
9:22 AM -5.8 °F -34.9 °F -11.2 °F 77% 29.68 in 1.0 mi North 33.4 mph 38.0 mph 0.00 in   Haze
9:29 AM -5.8 °F -36.3 °F -11.2 °F 77% 29.66 in 0.2 mi NNE 38.0 mph 42.6 mph 0.00 in   Clear
9:53 AM -5.1 °F -33.5 °F -9.9 °F 80% 29.67 in 0.2 mi North 32.2 mph 40.3 mph 0.00 in   Mostly Cloudy
10:30 AM -2.2 °F -27.1 °F -9.4 °F 71% 29.67 in 1.5 mi North 25.3 mph - 0.00 in   Haze
10:53 AM -2.0 °F -25.5 °F -8.0 °F 76% 29.66 in 1.2 mi North 21.9 mph 32.2 mph 0.00 in   Haze
11:15 AM -2.2 °F -28.4 °F -7.6 °F 78% 29.65 in 0.5 mi North 28.8 mph 34.5 mph N/A   Haze
11:53 AM -4.0 °F -30.9 °F -9.0 °F 79% 29.64 in 0.2 mi North 28.8 mph 34.5 mph 0.00 in   Mostly Cloudy
12:46 PM -2.2 °F -27.1 °F -7.6 °F 78% 29.64 in 1.0 mi NNW 25.3 mph - 0.00 in   Haze
12:53 PM -2.9 °F -28.1 °F -8.0 °F 79% 29.64 in 1.0 mi North 25.3 mph - 0.00 in   Haze
1:01 PM -2.2 °F -28.0 °F -7.6 °F 78% 29.63 in 0.5 mi North 27.6 mph - N/A   Haze
1:42 PM -2.2 °F -28.0 °F -7.6 °F 78% 29.62 in 1.0 mi North 27.6 mph - 0.00 in   Haze
1:50 PM -2.2 °F -27.1 °F -7.6 °F 78% 29.62 in 0.8 mi North 25.3 mph - 0.00 in   Haze
1:53 PM -2.0 °F -27.3 °F -8.0 °F 76% 29.63 in 0.8 mi North 26.5 mph - 0.00 in   Haze
2:53 PM -2.0 °F -28.6 °F -7.1 °F 79% 29.59 in 0.2 mi North 29.9 mph 36.8 mph 0.00 in   Haze
3:33 PM -2.2 °F -28.8 °F -7.6 °F 78% 29.57 in 0.2 mi North 29.9 mph - N/A   Haze
3:53 PM -0.9 °F -28.2 °F -6.0 °F 79% 29.56 in 0.2 mi North 33.4 mph 43.7 mph N/A   Haze
4:53 PM -0.9 °F -29.5 °F -6.0 °F 79% 29.55 in 0.2 mi North 38.0 mph 49.5 mph 0.00 in   Haze
5:53 PM -0.9 °F -29.5 °F -6.0 °F 79% 29.55 in 0.2 mi North 38.0 mph 47.2 mph N/A   Haze
6:53 PM -2.0 °F -31.3 °F -7.1 °F 79% 29.55 in 0.2 mi North 39.1 mph 48.3 mph N/A   Haze
7:53 PM -2.0 °F -28.2 °F -7.1 °F 79% 29.57 in 0.2 mi North 28.8 mph 38.0 mph N/A   Haze
8:53 PM -2.9 °F -31.3 °F -7.1 °F 82% 29.56 in 0.2 mi North 34.5 mph 41.4 mph N/A Fog Light Freezing Fog
9:05 PM -2.2 °F -29.9 °F -7.6 °F 78% 29.56 in 0.2 mi North 33.4 mph 48.3 mph N/A Fog Light Freezing Fog
9:14 PM -2.2 °F -31.3 °F -7.6 °F 78% 29.55 in 0.2 mi North 38.0 mph 47.2 mph N/A Fog Light Freezing Fog
9:35 PM -4.0 °F -34.7 °F -7.6 °F 85% 29.55 in 0.2 mi North 41.4 mph 48.3 mph N/A Fog Light Freezing Fog
9:53 PM -4.0 °F -34.4 °F -8.0 °F 83% 29.56 in 0.2 mi North 40.3 mph 52.9 mph N/A Fog Light Freezing Fog
10:53 PM -5.1 °F -33.5 °F -9.0 °F 83% 29.57 in 0.2 mi North 32.2 mph 43.7 mph N/A Fog Light Freezing Fog
11:53 PM -5.1 °F -34.9 °F -9.0 °F 83% 29.57 in 0.2 mi North 36.8 mph 43.7 mph 0.00 in Fog Light Freezing Fog